Вернуться в каталог

CZ-8A R/B

АктивенLEO
NORAD 68138·ROCKET BODY·🇨🇳 China

Запущен Mar 12, 2026 с Wenchang Space Launch Site

Loading…

Ближайшие Пролёты (ближайшие 24 часа)

TLE

СвежийSource: Space-Track

Эпоха: Sep 14, 2026, 16:34 UTC

1 68138U 26047K   26257.69052188 -.00000049  00000-0  56727-4 0  9991
2 68138  49.9538   9.1802 0044836  67.6360 292.9290 14.12258637 26267

Отслеживайте CZ-8A R/B в реальном времени с AllMySat

Download on the App Store